User: anonymous
Location: Onan Observatory
(44.8103°N, 93.9397°W)
Time: 06:19:23
(UTC-05:00)
Language:

Iridium 90 - Orbit

View from above orbital plane
View from above orbital plane
View from above satellite
View from above satellite

Ground track
Ground track

The orbit data is extracted from the following two-line orbital elements,

1 27373U 02005B   14292.15989721  .00000685  00000-0  19905-3 0  5261
2 27373 086.4510 036.3549 0002622 068.2310 291.9169 14.42949563671187
Epoch (UTC): 19 October 2014 03:50:15
Eccentricity: 0.0002622
inclination: 86.4510°
perigee height: 747 km
apogee height: 750 km
right ascension of ascending node: 36.3549°
argument of perigee: 68.2310°
revolutions per day: 14.42949563
mean anomaly at epoch: 291.9169°
orbit number at epoch: 67118

The dashed part of the orbit path shows where the satellite is in the earth's shadow,  

DLR